Year,Month,Day,Hour,Minute,Value (Times are PST for temperature in C)
2006,09,25,00,00,13.50
2006,09,25,00,01,13.40
2006,09,25,00,02,13.40
2006,09,25,00,03,13.30
2006,09,25,00,04,13.30
2006,09,25,00,05,13.30
2006,09,25,00,06,13.30
2006,09,25,00,07,13.20
2006,09,25,00,08,13.20
2006,09,25,00,09,13.10
2006,09,25,00,10,13.10
2006,09,25,00,11,13.10
2006,09,25,00,12,13.00
2006,09,25,00,13,13.00
2006,09,25,00,14,13.00
2006,09,25,00,15,12.90
2006,09,25,00,16,12.90
2006,09,25,00,17,12.90
2006,09,25,00,18,12.90
2006,09,25,00,19,12.80
2006,09,25,00,20,12.80
2006,09,25,00,21,12.80
2006,09,25,00,22,12.80
2006,09,25,00,23,12.80
2006,09,25,00,24,12.80
2006,09,25,00,25,12.80
2006,09,25,00,26,12.80
2006,09,25,00,27,12.70
2006,09,25,00,28,12.70
2006,09,25,00,29,12.70
2006,09,25,00,30,12.70
2006,09,25,00,31,12.70
2006,09,25,00,32,12.70
2006,09,25,00,33,12.70
2006,09,25,00,34,12.70
2006,09,25,00,35,12.60
2006,09,25,00,36,12.60
2006,09,25,00,37,12.60
2006,09,25,00,38,12.60
2006,09,25,00,39,12.60
2006,09,25,00,40,12.70
2006,09,25,00,41,12.70
2006,09,25,00,42,12.70
2006,09,25,00,43,12.60
2006,09,25,00,44,12.60
2006,09,25,00,45,12.60
2006,09,25,00,46,12.60
2006,09,25,00,47,12.60
2006,09,25,00,48,12.60
2006,09,25,00,49,12.60
2006,09,25,00,50,12.60
2006,09,25,00,51,12.60
2006,09,25,00,52,12.60
2006,09,25,00,53,12.60
2006,09,25,00,54,12.70
2006,09,25,00,55,12.70
2006,09,25,00,56,12.70
2006,09,25,00,57,12.80
2006,09,25,00,58,12.80
2006,09,25,00,59,12.80
2006,09,25,01,00,12.80
2006,09,25,01,01,12.80
2006,09,25,01,02,12.80
2006,09,25,01,03,12.80
2006,09,25,01,04,12.80
2006,09,25,01,05,12.80
2006,09,25,01,06,12.80
2006,09,25,01,07,12.90
2006,09,25,01,08,12.90
2006,09,25,01,09,13.00
2006,09,25,01,10,13.00
2006,09,25,01,11,13.00
2006,09,25,01,12,13.00
2006,09,25,01,13,13.00
2006,09,25,01,14,13.00
2006,09,25,01,15,13.00
2006,09,25,01,16,13.10
2006,09,25,01,17,13.10
2006,09,25,01,18,13.20
2006,09,25,01,19,13.20
2006,09,25,01,20,13.30
2006,09,25,01,21,13.30
2006,09,25,01,22,13.30
2006,09,25,01,23,13.30
2006,09,25,01,24,13.30
2006,09,25,01,25,13.30
2006,09,25,01,26,13.30
2006,09,25,01,27,13.20
2006,09,25,01,28,13.20
2006,09,25,01,29,13.20
2006,09,25,01,30,13.10
2006,09,25,01,31,13.10
2006,09,25,01,32,13.10
2006,09,25,01,33,13.00
2006,09,25,01,34,13.00
2006,09,25,01,35,12.90
2006,09,25,01,36,12.90
2006,09,25,01,37,12.80
2006,09,25,01,38,12.80
2006,09,25,01,39,12.80
2006,09,25,01,40,12.80
2006,09,25,01,41,12.80
2006,09,25,01,42,12.80
2006,09,25,01,43,12.80
2006,09,25,01,44,12.80
2006,09,25,01,45,12.70
2006,09,25,01,46,12.70
2006,09,25,01,47,12.70
2006,09,25,01,48,12.60
2006,09,25,01,49,12.60
2006,09,25,01,50,12.60
2006,09,25,01,51,12.60
2006,09,25,01,52,12.60
2006,09,25,01,53,12.60
2006,09,25,01,54,12.50
2006,09,25,01,55,12.50
2006,09,25,01,56,12.50
2006,09,25,01,57,12.50
2006,09,25,01,58,12.40
2006,09,25,01,59,12.40
2006,09,25,02,00,12.40
2006,09,25,02,01,12.40
2006,09,25,02,02,12.40
2006,09,25,02,03,12.40
2006,09,25,02,04,12.40
2006,09,25,02,05,12.40
2006,09,25,02,06,12.40
2006,09,25,02,07,12.40
2006,09,25,02,08,12.50
2006,09,25,02,09,12.50
2006,09,25,02,10,12.50
2006,09,25,02,11,12.50
2006,09,25,02,12,12.50
2006,09,25,02,13,12.50
2006,09,25,02,14,12.50
2006,09,25,02,15,12.50
2006,09,25,02,16,12.50
2006,09,25,02,17,12.50
2006,09,25,02,18,12.50
2006,09,25,02,19,12.50
2006,09,25,02,20,12.50
2006,09,25,02,21,12.50
2006,09,25,02,22,12.50
2006,09,25,02,23,12.50
2006,09,25,02,24,12.50
2006,09,25,02,25,12.60
2006,09,25,02,26,12.60
2006,09,25,02,27,12.60
2006,09,25,02,28,12.60
2006,09,25,02,29,12.50
2006,09,25,02,30,12.50
2006,09,25,02,31,12.50
2006,09,25,02,32,12.50
2006,09,25,02,33,12.40
2006,09,25,02,34,12.40
2006,09,25,02,35,12.40
2006,09,25,02,36,12.30
2006,09,25,02,37,12.30
2006,09,25,02,38,12.30
2006,09,25,02,39,12.30
2006,09,25,02,40,12.30
2006,09,25,02,41,12.30
2006,09,25,02,42,12.30
2006,09,25,02,43,12.30
2006,09,25,02,44,12.20
2006,09,25,02,45,12.20
2006,09,25,02,46,12.20
2006,09,25,02,47,12.20
2006,09,25,02,48,12.20
2006,09,25,02,49,12.30
2006,09,25,02,50,12.30
2006,09,25,02,51,12.30
2006,09,25,02,52,12.30
2006,09,25,02,53,12.30
2006,09,25,02,54,12.30
2006,09,25,02,55,12.30
2006,09,25,02,56,12.30
2006,09,25,02,57,12.30
2006,09,25,02,58,12.30
2006,09,25,02,59,12.30
2006,09,25,03,00,12.30
2006,09,25,03,01,12.30
2006,09,25,03,02,12.30
2006,09,25,03,03,12.30
2006,09,25,03,04,12.30
2006,09,25,03,05,12.30
2006,09,25,03,06,12.30
2006,09,25,03,07,12.30
2006,09,25,03,08,12.30
2006,09,25,03,09,12.30
2006,09,25,03,10,12.30
2006,09,25,03,11,12.30
2006,09,25,03,12,12.20
2006,09,25,03,13,12.20
2006,09,25,03,14,12.20
2006,09,25,03,15,12.10
2006,09,25,03,16,12.10
2006,09,25,03,17,12.00
2006,09,25,03,18,12.00
2006,09,25,03,19,12.00
2006,09,25,03,20,12.00
2006,09,25,03,21,11.90
2006,09,25,03,22,11.90
2006,09,25,03,23,11.90
2006,09,25,03,24,11.90
2006,09,25,03,25,11.90
2006,09,25,03,26,11.90
2006,09,25,03,27,11.90
2006,09,25,03,28,12.00
2006,09,25,03,29,12.00
2006,09,25,03,30,12.00
2006,09,25,03,31,12.00
2006,09,25,03,32,12.00
2006,09,25,03,33,12.00
2006,09,25,03,34,12.00
2006,09,25,03,35,12.00
2006,09,25,03,36,12.00
2006,09,25,03,37,12.00
2006,09,25,03,38,12.00
2006,09,25,03,39,12.10
2006,09,25,03,40,12.10
2006,09,25,03,41,12.10
2006,09,25,03,42,12.10
2006,09,25,03,43,12.10
2006,09,25,03,44,12.20
2006,09,25,03,45,12.20
2006,09,25,03,46,12.30
2006,09,25,03,47,12.30
2006,09,25,03,48,12.30
2006,09,25,03,49,12.30
2006,09,25,03,50,12.30
2006,09,25,03,51,12.30
2006,09,25,03,52,12.20
2006,09,25,03,53,12.20
2006,09,25,03,54,12.10
2006,09,25,03,55,12.10
2006,09,25,03,56,12.00
2006,09,25,03,57,12.00
2006,09,25,03,58,12.00
2006,09,25,03,59,12.10
2006,09,25,04,00,12.10
2006,09,25,04,01,12.10
2006,09,25,04,02,12.00
2006,09,25,04,03,12.00
2006,09,25,04,04,12.00
2006,09,25,04,05,12.00
2006,09,25,04,06,12.00
2006,09,25,04,07,12.00
2006,09,25,04,08,12.00
2006,09,25,04,09,12.00
2006,09,25,04,10,12.00
2006,09,25,04,11,12.00
2006,09,25,04,12,12.00
2006,09,25,04,13,12.00
2006,09,25,04,14,12.00
2006,09,25,04,15,12.00
2006,09,25,04,16,11.90
2006,09,25,04,17,11.90
2006,09,25,04,18,11.80
2006,09,25,04,19,11.80
2006,09,25,04,20,11.80
2006,09,25,04,21,11.80
2006,09,25,04,22,11.80
2006,09,25,04,23,11.80
2006,09,25,04,24,11.70
2006,09,25,04,25,11.70
2006,09,25,04,26,11.70
2006,09,25,04,27,11.70
2006,09,25,04,28,11.70
2006,09,25,04,29,11.70
2006,09,25,04,30,11.70
2006,09,25,04,31,11.60
2006,09,25,04,32,11.60
2006,09,25,04,33,11.60
2006,09,25,04,34,11.60
2006,09,25,04,35,11.60
2006,09,25,04,36,11.60
2006,09,25,04,37,11.60
2006,09,25,04,38,11.60
2006,09,25,04,39,11.60
2006,09,25,04,40,11.60
2006,09,25,04,41,11.60
2006,09,25,04,42,11.50
2006,09,25,04,43,11.40
2006,09,25,04,44,11.40
2006,09,25,04,45,11.40
2006,09,25,04,46,11.40
2006,09,25,04,47,11.40
2006,09,25,04,48,11.40
2006,09,25,04,49,11.40
2006,09,25,04,50,11.40
2006,09,25,04,51,11.40
2006,09,25,04,52,11.40
2006,09,25,04,53,11.40
2006,09,25,04,54,11.40
2006,09,25,04,55,11.40
2006,09,25,04,56,11.40
2006,09,25,04,57,11.40
2006,09,25,04,58,11.40
2006,09,25,04,59,11.40
2006,09,25,05,00,11.40
2006,09,25,05,01,11.40
2006,09,25,05,02,11.30
2006,09,25,05,03,11.30
2006,09,25,05,04,11.20
2006,09,25,05,05,11.20
2006,09,25,05,06,11.20
2006,09,25,05,07,11.10
2006,09,25,05,08,11.10
2006,09,25,05,09,11.10
2006,09,25,05,10,11.10
2006,09,25,05,11,11.20
2006,09,25,05,12,11.20
2006,09,25,05,13,11.20
2006,09,25,05,14,11.20
2006,09,25,05,15,11.20
2006,09,25,05,16,11.20
2006,09,25,05,17,11.10
2006,09,25,05,18,11.10
2006,09,25,05,19,11.10
2006,09,25,05,20,11.10
2006,09,25,05,21,11.10
2006,09,25,05,22,11.10
2006,09,25,05,23,11.10
2006,09,25,05,24,11.10
2006,09,25,05,25,11.10
2006,09,25,05,26,11.10
2006,09,25,05,27,11.10
2006,09,25,05,28,11.10
2006,09,25,05,29,11.10
2006,09,25,05,30,11.10
2006,09,25,05,31,11.10
2006,09,25,05,32,10.90
2006,09,25,05,33,10.90
2006,09,25,05,34,10.90
2006,09,25,05,35,10.90
2006,09,25,05,36,10.90
2006,09,25,05,37,10.90
2006,09,25,05,38,10.90
2006,09,25,05,39,10.90
2006,09,25,05,40,10.90
2006,09,25,05,41,10.90
2006,09,25,05,42,10.90
2006,09,25,05,43,10.90
2006,09,25,05,44,10.90
2006,09,25,05,45,10.90
2006,09,25,05,46,10.80
2006,09,25,05,47,10.80
2006,09,25,05,48,10.80
2006,09,25,05,49,10.80
2006,09,25,05,50,10.80
2006,09,25,05,51,10.80
2006,09,25,05,52,10.90
2006,09,25,05,53,10.90
2006,09,25,05,54,10.90
2006,09,25,05,55,10.90
2006,09,25,05,56,10.90
2006,09,25,05,57,10.90
2006,09,25,05,58,10.90
2006,09,25,05,59,10.90
2006,09,25,06,00,10.90
2006,09,25,06,01,10.80
2006,09,25,06,02,10.80
2006,09,25,06,03,10.80
2006,09,25,06,04,10.80
2006,09,25,06,05,10.80
2006,09,25,06,06,10.90
2006,09,25,06,07,10.90
2006,09,25,06,08,10.90
2006,09,25,06,09,10.90
2006,09,25,06,10,10.90
2006,09,25,06,11,10.90
2006,09,25,06,12,10.90
2006,09,25,06,13,10.90
2006,09,25,06,14,10.90
2006,09,25,06,15,10.90
2006,09,25,06,16,10.90
2006,09,25,06,17,10.90
2006,09,25,06,18,10.90
2006,09,25,06,19,10.90
2006,09,25,06,20,10.90
2006,09,25,06,21,10.90
2006,09,25,06,22,10.90
2006,09,25,06,23,10.90
2006,09,25,06,24,10.90
2006,09,25,06,25,10.90
2006,09,25,06,26,10.90
2006,09,25,06,27,10.90
2006,09,25,06,28,10.90
2006,09,25,06,29,11.00
2006,09,25,06,30,11.10
2006,09,25,06,31,11.10
2006,09,25,06,32,11.10
2006,09,25,06,33,11.10
2006,09,25,06,34,11.10
2006,09,25,06,35,11.10
2006,09,25,06,36,11.10
2006,09,25,06,37,11.10
2006,09,25,06,38,11.10
2006,09,25,06,39,11.10
2006,09,25,06,40,11.10
2006,09,25,06,41,11.10
2006,09,25,06,42,11.10
2006,09,25,06,43,11.10
2006,09,25,06,44,11.10
2006,09,25,06,45,11.10
2006,09,25,06,46,11.10
2006,09,25,06,47,11.10
2006,09,25,06,48,11.10
2006,09,25,06,49,11.10
2006,09,25,06,50,11.10
2006,09,25,06,51,11.00
2006,09,25,06,52,10.90
2006,09,25,06,53,10.90
2006,09,25,06,54,10.90
2006,09,25,06,55,10.90
2006,09,25,06,56,10.90
2006,09,25,06,57,10.90
2006,09,25,06,58,10.90
2006,09,25,06,59,10.90
2006,09,25,07,00,10.90
2006,09,25,07,01,10.90
2006,09,25,07,02,10.80
2006,09,25,07,03,10.80
2006,09,25,07,04,10.80
2006,09,25,07,05,10.70
2006,09,25,07,06,10.60
2006,09,25,07,07,10.60
2006,09,25,07,08,10.60
2006,09,25,07,09,10.60
2006,09,25,07,10,10.60
2006,09,25,07,11,10.60
2006,09,25,07,12,10.60
2006,09,25,07,13,10.60
2006,09,25,07,14,10.60
2006,09,25,07,15,10.60
2006,09,25,07,16,10.60
2006,09,25,07,17,10.70
2006,09,25,07,18,10.70
2006,09,25,07,19,10.70
2006,09,25,07,20,10.70
2006,09,25,07,21,10.80
2006,09,25,07,22,10.80
2006,09,25,07,23,10.80
2006,09,25,07,24,10.90
2006,09,25,07,25,10.90
2006,09,25,07,26,10.90
2006,09,25,07,27,10.90
2006,09,25,07,28,10.90
2006,09,25,07,29,10.90
2006,09,25,07,30,10.90
2006,09,25,07,31,10.90
2006,09,25,07,32,10.90
2006,09,25,07,33,10.90
2006,09,25,07,34,10.90
2006,09,25,07,35,10.90
2006,09,25,07,36,10.90
2006,09,25,07,37,11.00
2006,09,25,07,38,11.10
2006,09,25,07,39,11.10
2006,09,25,07,40,11.10
2006,09,25,07,41,11.10
2006,09,25,07,42,11.20
2006,09,25,07,43,11.20
2006,09,25,07,44,11.30
2006,09,25,07,45,11.30
2006,09,25,07,46,11.40
2006,09,25,07,47,11.40
2006,09,25,07,48,11.50
2006,09,25,07,49,11.60
2006,09,25,07,50,11.60
2006,09,25,07,51,11.60
2006,09,25,07,52,11.70
2006,09,25,07,53,11.70
2006,09,25,07,54,11.70
2006,09,25,07,55,11.70
2006,09,25,07,56,11.70
2006,09,25,07,57,11.70
2006,09,25,07,58,11.80
2006,09,25,07,59,11.80
2006,09,25,08,00,11.80
2006,09,25,08,01,11.80
2006,09,25,08,02,11.80
2006,09,25,08,03,11.90
2006,09,25,08,04,11.90
2006,09,25,08,05,12.00
2006,09,25,08,06,12.10
2006,09,25,08,07,12.10
2006,09,25,08,08,12.20
2006,09,25,08,09,12.30
2006,09,25,08,10,12.40
2006,09,25,08,11,12.50
2006,09,25,08,12,12.50
2006,09,25,08,13,12.60
2006,09,25,08,14,12.60
2006,09,25,08,15,12.60
2006,09,25,08,16,12.60
2006,09,25,08,17,12.60
2006,09,25,08,18,12.60
2006,09,25,08,19,12.60
2006,09,25,08,20,12.60
2006,09,25,08,21,12.70
2006,09,25,08,22,12.70
2006,09,25,08,23,12.70
2006,09,25,08,24,12.80
2006,09,25,08,25,12.80
2006,09,25,08,26,12.90
2006,09,25,08,27,13.00
2006,09,25,08,28,13.10
2006,09,25,08,29,13.20
2006,09,25,08,30,13.30
2006,09,25,08,31,13.30
2006,09,25,08,32,13.40
2006,09,25,08,33,13.40
2006,09,25,08,34,13.50
2006,09,25,08,35,13.50
2006,09,25,08,36,13.60
2006,09,25,08,37,13.70
2006,09,25,08,38,13.70
2006,09,25,08,39,13.70
2006,09,25,08,40,13.70
2006,09,25,08,41,13.80
2006,09,25,08,42,13.80
2006,09,25,08,43,13.80
2006,09,25,08,44,13.80
2006,09,25,08,45,13.80
2006,09,25,08,46,13.80
2006,09,25,08,47,13.90
2006,09,25,08,48,13.90
2006,09,25,08,49,14.00
2006,09,25,08,50,14.00
2006,09,25,08,51,14.00
2006,09,25,08,52,14.00
2006,09,25,08,53,14.10
2006,09,25,08,54,14.10
2006,09,25,08,55,14.20
2006,09,25,08,56,14.20
2006,09,25,08,57,14.30
2006,09,25,08,58,14.30
2006,09,25,08,59,14.40
2006,09,25,09,00,14.40
2006,09,25,09,01,14.40
2006,09,25,09,02,14.40
2006,09,25,09,03,14.40
2006,09,25,09,04,14.50
2006,09,25,09,05,14.50
2006,09,25,09,06,14.60
2006,09,25,09,07,14.60
2006,09,25,09,08,14.70
2006,09,25,09,09,14.80
2006,09,25,09,10,14.80
2006,09,25,09,11,14.90
2006,09,25,09,12,15.00
2006,09,25,09,13,15.00
2006,09,25,09,14,15.00
2006,09,25,09,15,15.00
2006,09,25,09,16,15.00
2006,09,25,09,17,15.00
2006,09,25,09,18,15.00
2006,09,25,09,19,15.00
2006,09,25,09,20,15.00
2006,09,25,09,21,15.00
2006,09,25,09,22,15.00
2006,09,25,09,23,15.00
2006,09,25,09,24,14.90
2006,09,25,09,25,14.90
2006,09,25,09,26,14.80
2006,09,25,09,27,14.70
2006,09,25,09,28,14.60
2006,09,25,09,29,14.60
2006,09,25,09,30,14.70
2006,09,25,09,31,14.70
2006,09,25,09,32,14.80
2006,09,25,09,33,14.90
2006,09,25,09,34,15.00
2006,09,25,09,35,15.10
2006,09,25,09,36,15.20
2006,09,25,09,37,15.30
2006,09,25,09,38,15.40
2006,09,25,09,39,15.50
2006,09,25,09,40,15.60
2006,09,25,09,41,15.60
2006,09,25,09,42,15.70
2006,09,25,09,43,15.80
2006,09,25,09,44,15.90
2006,09,25,09,45,16.00
2006,09,25,09,46,16.10
2006,09,25,09,47,16.00
2006,09,25,09,48,15.90
2006,09,25,09,49,15.80
2006,09,25,09,50,15.70
2006,09,25,09,51,15.60
2006,09,25,09,52,15.60
2006,09,25,09,53,15.50
2006,09,25,09,54,15.50
2006,09,25,09,55,15.50
2006,09,25,09,56,15.40
2006,09,25,09,57,15.40
2006,09,25,09,58,15.40
2006,09,25,09,59,15.40
2006,09,25,10,00,15.50
2006,09,25,10,01,15.50
2006,09,25,10,02,15.50
2006,09,25,10,03,15.50
2006,09,25,10,04,15.50
2006,09,25,10,05,15.60
2006,09,25,10,06,15.60
2006,09,25,10,07,15.60
2006,09,25,10,08,15.60
2006,09,25,10,09,15.70
2006,09,25,10,10,15.80
2006,09,25,10,11,15.80
2006,09,25,10,12,15.70
2006,09,25,10,13,15.70
2006,09,25,10,14,15.60
2006,09,25,10,15,15.60
2006,09,25,10,16,15.50
2006,09,25,10,17,15.40
2006,09,25,10,18,15.40
2006,09,25,10,19,15.30
2006,09,25,10,20,15.30
2006,09,25,10,21,15.30
2006,09,25,10,22,15.30
2006,09,25,10,23,15.30
2006,09,25,10,24,15.20
2006,09,25,10,25,15.10
2006,09,25,10,26,15.00
2006,09,25,10,27,14.80
2006,09,25,10,28,14.80
2006,09,25,10,29,14.60
2006,09,25,10,30,14.60
2006,09,25,10,31,14.50
2006,09,25,10,32,14.50
2006,09,25,10,33,14.50
2006,09,25,10,34,14.40
2006,09,25,10,35,14.40
2006,09,25,10,36,14.40
2006,09,25,10,37,14.40
2006,09,25,10,38,14.40
2006,09,25,10,39,14.40
2006,09,25,10,40,14.40
2006,09,25,10,41,14.50
2006,09,25,10,42,14.50
2006,09,25,10,43,14.60
2006,09,25,10,44,14.70
2006,09,25,10,45,14.70
2006,09,25,10,46,14.80
2006,09,25,10,47,14.80
2006,09,25,10,48,14.90
2006,09,25,10,49,14.90
2006,09,25,10,50,14.90
2006,09,25,10,51,14.90
2006,09,25,10,52,15.00
2006,09,25,10,53,15.10
2006,09,25,10,54,15.10
2006,09,25,10,55,15.10
2006,09,25,10,56,15.20
2006,09,25,10,57,15.30
2006,09,25,10,58,15.30
2006,09,25,10,59,15.30
2006,09,25,11,00,15.30
2006,09,25,11,01,15.30
2006,09,25,11,02,15.20
2006,09,25,11,03,15.10
2006,09,25,11,04,15.00
2006,09,25,11,05,15.00
2006,09,25,11,06,15.00
2006,09,25,11,07,15.00
2006,09,25,11,08,14.90
2006,09,25,11,09,14.90
2006,09,25,11,10,14.90
2006,09,25,11,11,15.00
2006,09,25,11,12,15.10
2006,09,25,11,13,15.30
2006,09,25,11,14,15.30
2006,09,25,11,15,15.40
2006,09,25,11,16,15.40
2006,09,25,11,17,15.50
2006,09,25,11,18,15.60
2006,09,25,11,19,15.60
2006,09,25,11,20,15.70
2006,09,25,11,21,15.80
2006,09,25,11,22,15.80
2006,09,25,11,23,15.80
2006,09,25,11,24,15.80
2006,09,25,11,25,15.70
2006,09,25,11,26,15.70
2006,09,25,11,27,15.80
2006,09,25,11,28,15.90
2006,09,25,11,29,16.00
2006,09,25,11,30,16.20
2006,09,25,11,31,16.30
2006,09,25,11,32,16.50
2006,09,25,11,33,16.70
2006,09,25,11,34,16.70
2006,09,25,11,35,16.80
2006,09,25,11,36,17.00
2006,09,25,11,37,17.00
2006,09,25,11,38,17.10
2006,09,25,11,39,17.30
2006,09,25,11,40,17.40
2006,09,25,11,41,17.50
2006,09,25,11,42,17.50
2006,09,25,11,43,17.40
2006,09,25,11,44,17.30
2006,09,25,11,45,17.20
2006,09,25,11,46,17.20
2006,09,25,11,47,17.20
2006,09,25,11,48,17.20
2006,09,25,11,49,17.00
2006,09,25,11,50,16.80
2006,09,25,11,51,16.80
2006,09,25,11,52,16.90
2006,09,25,11,53,16.90
2006,09,25,11,54,17.00
2006,09,25,11,55,17.10
2006,09,25,11,56,17.20
2006,09,25,11,57,17.30
2006,09,25,11,58,17.50
2006,09,25,11,59,17.60
2006,09,25,12,00,17.70
2006,09,25,12,01,17.70
2006,09,25,12,02,17.70
2006,09,25,12,03,17.70
2006,09,25,12,04,17.60
2006,09,25,12,05,17.60
2006,09,25,12,06,17.70
2006,09,25,12,07,17.70
2006,09,25,12,08,17.50
2006,09,25,12,09,17.50
2006,09,25,12,10,17.50
2006,09,25,12,11,17.60
2006,09,25,12,12,17.70
2006,09,25,12,13,17.80
2006,09,25,12,14,17.80
2006,09,25,12,15,17.90
2006,09,25,12,16,17.80
2006,09,25,12,17,17.50
2006,09,25,12,18,17.30
2006,09,25,12,19,17.20
2006,09,25,12,20,17.10
2006,09,25,12,21,17.10
2006,09,25,12,22,16.90
2006,09,25,12,23,16.80
2006,09,25,12,24,16.70
2006,09,25,12,25,16.70
2006,09,25,12,26,16.70
2006,09,25,12,27,16.80
2006,09,25,12,28,17.00
2006,09,25,12,29,17.20
2006,09,25,12,30,17.40
2006,09,25,12,31,17.50
2006,09,25,12,32,17.70
2006,09,25,12,33,17.90
2006,09,25,12,34,17.90
2006,09,25,12,35,17.90
2006,09,25,12,36,17.90
2006,09,25,12,37,17.90
2006,09,25,12,38,17.90
2006,09,25,12,39,17.90
2006,09,25,12,40,17.70
2006,09,25,12,41,17.60
2006,09,25,12,42,17.60
2006,09,25,12,43,17.70
2006,09,25,12,44,17.80
2006,09,25,12,45,17.90
2006,09,25,12,46,18.10
2006,09,25,12,47,18.20
2006,09,25,12,48,18.30
2006,09,25,12,49,18.30
2006,09,25,12,50,18.30
2006,09,25,12,51,18.40
2006,09,25,12,52,18.50
2006,09,25,12,53,18.60
2006,09,25,12,54,18.70
2006,09,25,12,55,18.80
2006,09,25,12,56,19.00
2006,09,25,12,57,19.10
2006,09,25,12,58,19.40
2006,09,25,12,59,19.60
2006,09,25,13,00,19.80
2006,09,25,13,01,20.10
2006,09,25,13,02,20.20
2006,09,25,13,03,20.40
2006,09,25,13,04,20.40
2006,09,25,13,05,20.40
2006,09,25,13,06,20.30
2006,09,25,13,07,20.20
2006,09,25,13,08,20.30
2006,09,25,13,09,20.50
2006,09,25,13,10,20.50
2006,09,25,13,11,20.40
2006,09,25,13,12,20.50
2006,09,25,13,13,20.50
2006,09,25,13,14,20.60
2006,09,25,13,15,20.60
2006,09,25,13,16,20.70
2006,09,25,13,17,20.50
2006,09,25,13,18,20.20
2006,09,25,13,19,20.00
2006,09,25,13,20,19.90
2006,09,25,13,21,19.90
2006,09,25,13,22,19.90
2006,09,25,13,23,19.90
2006,09,25,13,24,19.90
2006,09,25,13,25,19.90
2006,09,25,13,26,19.80
2006,09,25,13,27,19.70
2006,09,25,13,28,19.80
2006,09,25,13,29,19.90
2006,09,25,13,30,20.00
2006,09,25,13,31,20.10
2006,09,25,13,32,20.20
2006,09,25,13,33,20.30
2006,09,25,13,34,20.40
2006,09,25,13,35,20.50
2006,09,25,13,36,20.60
2006,09,25,13,37,20.70
2006,09,25,13,38,20.60
2006,09,25,13,39,20.70
2006,09,25,13,40,20.60
2006,09,25,13,41,20.30
2006,09,25,13,42,19.90
2006,09,25,13,43,19.50
2006,09,25,13,44,19.20
2006,09,25,13,45,19.00
2006,09,25,13,46,18.90
2006,09,25,13,47,18.60
2006,09,25,13,48,18.20
2006,09,25,13,49,17.90
2006,09,25,13,50,17.80
2006,09,25,13,51,17.80
2006,09,25,13,52,17.80
2006,09,25,13,53,17.70
2006,09,25,13,54,17.60
2006,09,25,13,55,17.60
2006,09,25,13,56,17.60
2006,09,25,13,57,17.60
2006,09,25,13,58,17.60
2006,09,25,13,59,17.70
2006,09,25,14,00,17.70
2006,09,25,14,01,17.80
2006,09,25,14,02,17.80
2006,09,25,14,03,17.80
2006,09,25,14,04,17.90
2006,09,25,14,05,17.90
2006,09,25,14,06,17.90
2006,09,25,14,07,17.90
2006,09,25,14,08,18.00
2006,09,25,14,09,18.10
2006,09,25,14,10,18.20
2006,09,25,14,11,18.20
2006,09,25,14,12,18.20
2006,09,25,14,13,18.20
2006,09,25,14,14,18.30
2006,09,25,14,15,18.40
2006,09,25,14,16,18.40
2006,09,25,14,17,18.30
2006,09,25,14,18,18.20
2006,09,25,14,19,18.00
2006,09,25,14,20,17.90
2006,09,25,14,21,17.80
2006,09,25,14,22,17.70
2006,09,25,14,23,17.50
2006,09,25,14,24,17.60
2006,09,25,14,25,17.70
2006,09,25,14,26,17.50
2006,09,25,14,27,17.30
2006,09,25,14,28,17.10
2006,09,25,14,29,16.90
2006,09,25,14,30,16.90
2006,09,25,14,31,16.80
2006,09,25,14,32,16.70
2006,09,25,14,33,16.70
2006,09,25,14,34,16.70
2006,09,25,14,35,16.60
2006,09,25,14,36,16.50
2006,09,25,14,37,16.50
2006,09,25,14,38,16.60
2006,09,25,14,39,16.60
2006,09,25,14,40,16.70
2006,09,25,14,41,16.80
2006,09,25,14,42,16.70
2006,09,25,14,43,16.70
2006,09,25,14,44,16.70
2006,09,25,14,45,16.70
2006,09,25,14,46,16.80
2006,09,25,14,47,16.70
2006,09,25,14,48,16.70
2006,09,25,14,49,16.70
2006,09,25,14,50,16.80
2006,09,25,14,51,16.80
2006,09,25,14,52,16.80
2006,09,25,14,53,16.70
2006,09,25,14,54,16.60
2006,09,25,14,55,16.50
2006,09,25,14,56,16.40
2006,09,25,14,57,16.50
2006,09,25,14,58,16.60
2006,09,25,14,59,16.60
2006,09,25,15,00,16.70
2006,09,25,15,01,16.70
2006,09,25,15,02,16.60
2006,09,25,15,03,16.60
2006,09,25,15,04,16.70
2006,09,25,15,05,16.70
2006,09,25,15,06,16.80
2006,09,25,15,07,17.00
2006,09,25,15,08,17.20
2006,09,25,15,09,17.40
2006,09,25,15,10,17.50
2006,09,25,15,11,17.80
2006,09,25,15,12,18.00
2006,09,25,15,13,18.20
2006,09,25,15,14,18.30
2006,09,25,15,15,18.40
2006,09,25,15,16,18.50
2006,09,25,15,17,18.50
2006,09,25,15,18,18.60
2006,09,25,15,19,18.80
2006,09,25,15,20,18.90
2006,09,25,15,21,18.90
2006,09,25,15,22,18.90
2006,09,25,15,23,19.00
2006,09,25,15,24,19.20
2006,09,25,15,25,19.40
2006,09,25,15,26,19.60
2006,09,25,15,27,19.70
2006,09,25,15,28,19.80
2006,09,25,15,29,19.90
2006,09,25,15,30,19.90
2006,09,25,15,31,20.00
2006,09,25,15,32,20.00
2006,09,25,15,33,19.90
2006,09,25,15,34,19.70
2006,09,25,15,35,19.60
2006,09,25,15,36,19.60
2006,09,25,15,37,19.60
2006,09,25,15,38,19.60
2006,09,25,15,39,19.40
2006,09,25,15,40,19.40
2006,09,25,15,41,19.50
2006,09,25,15,42,19.50
2006,09,25,15,43,19.50
2006,09,25,15,44,19.50
2006,09,25,15,45,19.60
2006,09,25,15,46,19.60
2006,09,25,15,47,19.40
2006,09,25,15,48,19.20
2006,09,25,15,49,19.00
2006,09,25,15,50,18.90
2006,09,25,15,51,18.70
2006,09,25,15,52,18.60
2006,09,25,15,53,18.50
2006,09,25,15,54,18.40
2006,09,25,15,55,18.20
2006,09,25,15,56,18.10
2006,09,25,15,57,18.10
2006,09,25,15,58,18.00
2006,09,25,15,59,17.90
2006,09,25,16,00,17.90
2006,09,25,16,01,17.90
2006,09,25,16,02,17.90
2006,09,25,16,03,17.90
2006,09,25,16,04,17.80
2006,09,25,16,05,17.80
2006,09,25,16,06,17.90
2006,09,25,16,07,17.80
2006,09,25,16,08,17.80
2006,09,25,16,09,17.70
2006,09,25,16,10,17.60
2006,09,25,16,11,17.60
2006,09,25,16,12,17.70
2006,09,25,16,13,17.70
2006,09,25,16,14,17.70
2006,09,25,16,15,17.60
2006,09,25,16,16,17.50
2006,09,25,16,17,17.50
2006,09,25,16,18,17.40
2006,09,25,16,19,17.30
2006,09,25,16,20,17.30
2006,09,25,16,21,17.30
2006,09,25,16,22,17.30
2006,09,25,16,23,17.30
2006,09,25,16,24,17.30
2006,09,25,16,25,17.20
2006,09,25,16,26,17.10
2006,09,25,16,27,17.10
2006,09,25,16,28,17.10
2006,09,25,16,29,17.10
2006,09,25,16,30,17.10
2006,09,25,16,31,17.10
2006,09,25,16,32,17.10
2006,09,25,16,33,17.10
2006,09,25,16,34,17.10
2006,09,25,16,35,17.10
2006,09,25,16,36,17.20
2006,09,25,16,37,17.20
2006,09,25,16,38,17.30
2006,09,25,16,39,17.30
2006,09,25,16,40,17.30
2006,09,25,16,41,17.30
2006,09,25,16,42,17.30
2006,09,25,16,43,17.20
2006,09,25,16,44,17.20
2006,09,25,16,45,17.10
2006,09,25,16,46,17.00
2006,09,25,16,47,17.00
2006,09,25,16,48,16.90
2006,09,25,16,49,16.90
2006,09,25,16,50,16.90
2006,09,25,16,51,16.80
2006,09,25,16,52,16.70
2006,09,25,16,53,16.70
2006,09,25,16,54,16.70
2006,09,25,16,55,16.70
2006,09,25,16,56,16.70
2006,09,25,16,57,16.70
2006,09,25,16,58,16.70
2006,09,25,16,59,16.70
2006,09,25,17,00,16.70
2006,09,25,17,01,16.70
2006,09,25,17,02,16.70
2006,09,25,17,03,16.70
2006,09,25,17,04,16.70
2006,09,25,17,05,16.70
2006,09,25,17,06,16.70
2006,09,25,17,07,16.60
2006,09,25,17,08,16.60
2006,09,25,17,09,16.60
2006,09,25,17,10,16.60
2006,09,25,17,11,16.60
2006,09,25,17,12,16.60
2006,09,25,17,13,16.70
2006,09,25,17,14,16.70
2006,09,25,17,15,16.70
2006,09,25,17,16,16.60
2006,09,25,17,17,16.50
2006,09,25,17,18,16.40
2006,09,25,17,19,16.40